GW6677 Weather Reports


time (UTC)temp
F
wind
direction
speed
knots
gust
knots
rain 1hr
in
rain 24hr
in
rain mn
in
humidity
%
barometer
mb
20260505173309 54 79 4.3 5.2 0.00 0.00 0.00 26 1007.5
20260505172806 54 278 2.6 3.5 0.00 0.00 0.00 25 1007.5
20260505172305 53 324 3.5 3.5 0.00 0.00 0.00 26 1007.5
20260505171758 54 205 4.3 4.3 0.00 0.00 0.00 25 1007.1
20260505171255 54 330 4.3 4.3 0.00 0.00 0.00 26 1007.5
20260505170751 54 282 2.6 3.5 0.00 0.00 0.00 25 1007.1
20260505170249 53 288 2.6 3.5 0.00 0.00 0.00 26 1007.5
20260505165749 52 282 2.6 2.6 0.00 0.00 0.00 27 1007.1
20260505165246 53 284 2.6 2.6 0.00 0.00 0.00 27 1007.5
20260505164741 53 242 3.5 3.5 0.00 0.00 0.00 28 1007.1
20260505164239 54 328 5.2 5.2 0.00 0.00 0.00 26 1006.8
20260505163737 54 324 1.7 1.7 0.00 0.00 0.00 26 1007.1
20260505163235 53 342 1.7 1.7 0.00 0.00 0.00 29 1007.1
20260505162732 52 301 5.2 5.2 0.00 0.00 0.00 28 1007.1
20260505162229 52 295 3.5 3.5 0.00 0.00 0.00 27 1007.1
20260505161726 52 276 3.5 3.5 0.00 0.00 0.00 28 1007.1
20260505161224 53 336 6.1 7.0 0.00 0.00 0.00 27 1006.8
20260505160721 52 263 3.5 3.5 0.00 0.00 0.00 28 1007.1
20260505160219 52 276 2.6 3.5 0.00 0.00 0.00 29 1006.8
20260505153158 50 250 3.5 3.5 0.00 0.00 0.00 31 1006.8
20260505152654 49 312 3.5 3.5 0.00 0.00 0.00 31 1007.1
20260505152150 51 42 3.5 4.3 0.00 0.00 0.00 31 1006.8
20260505151646 50 216 7.0 7.0 0.00 0.00 0.00 29 1006.8
20260505151143 51 210 1.7 1.7 0.00 0.00 0.00 29 1006.8
20260505150639 50 271 2.6 2.6 0.00 0.00 0.00 30 1006.8
20260505150137 49 336 4.3 5.2 0.00 0.00 0.00 31 1006.8
20260505140605 48 188 2.6 2.6 0.00 0.00 0.00 41 1006.8
20260505125018 46 276 0.9 0.9 0.00 0.00 0.00 47 1006.8
20260505124515 45 272 1.7 1.7 0.00 0.00 0.00 48 1006.8
20260505124011 45 234 1.7 1.7 0.00 0.00 0.00 48 1006.8
20260505123508 44 251 1.7 1.7 0.00 0.00 0.00 49 1006.8
20260505123004 44 302 1.7 1.7 0.00 0.00 0.00 51 1006.8
20260505122501 43 287 0.0 0.0 0.00 0.00 0.00 52 1006.8
20260505121958 43 258 1.7 1.7 0.00 0.00 0.00 52 1006.4
20260505121455 42 256 1.7 1.7 0.00 0.00 0.00 53 1006.4
20260505120951 41 195 1.7 1.7 0.00 0.00 0.00 56 1006.1
20260505120447 40 172 0.0 0.0 0.00 0.00 0.00 58 1006.1
20260505115946 39 284 0.9 0.9 0.00 0.00 0.00 59 1005.8
20260505115443 38 284 0.0 0.0 0.00 0.00 0.00 62 1005.8
20260505114941 36 283 1.7 1.7 0.00 0.00 0.00 63 1005.4
20260505114437 34 312 0.0 0.0 0.00 0.00 0.00 73 1005.1
20260505113934 33 312 0.0 0.0 0.00 0.00 0.00 73 1005.1
20260505113430 33 312 0.0 0.0 0.00 0.00 0.00 74 1005.1
20260505112926 33 312 0.0 0.0 0.00 0.00 0.00 75 1004.7
20260505112424 33 312 0.0 0.0 0.00 0.00 0.00 75 1005.1
20260505111920 33 312 0.0 0.0 0.00 0.00 0.00 74 1005.1
20260505111415 34 312 0.0 0.0 0.00 0.00 0.00 72 1005.1
20260505110911 34 312 0.0 0.0 0.00 0.00 0.00 71 1005.1
20260505110408 34 312 0.0 0.0 0.00 0.00 0.00 72 1005.1
20260505101838 32 312 0.0 0.0 0.00 0.00 0.00 78 1004.7
20260505101334 32 312 0.0 0.0 0.00 0.00 0.00 78 1004.7
20260505100830 33 312 0.0 0.0 0.00 0.00 0.00 77 1005.1
20260505100327 33 312 0.0 0.0 0.00 0.00 0.00 76 1004.7
20260505095822 34 312 0.0 0.0 0.00 0.00 0.00 75 1004.7
20260505095320 34 312 0.0 0.0 0.00 0.00 0.00 74 1004.3
20260505094816 35 312 0.0 0.0 0.00 0.00 0.00 73 1004.3
20260505094313 35 312 0.0 0.0 0.00 0.00 0.00 72 1004.7
20260505093808 35 312 0.0 0.0 0.00 0.00 0.00 71 1004.7
20260505093306 36 312 0.0 0.0 0.00 0.00 0.00 70 1004.7
20260505092802 36 312 0.0 0.0 0.00 0.00 0.00 69 1004.3
20260505092304 37 312 0.0 0.0 0.00 0.00 0.00 68 1004.3
20260505091758 37 312 0.0 0.0 0.00 0.00 0.00 67 1004.3
20260505091256 37 312 0.0 0.0 0.00 0.00 0.00 65 1004.3
20260505090754 38 312 0.0 0.0 0.00 0.00 0.00 64 1004.3
20260505090252 38 312 0.0 0.0 0.00 0.00 0.00 64 1004.3
20260505085749 38 312 0.0 0.0 0.00 0.00 0.00 63 1004.3
20260505085242 39 312 0.0 0.0 0.00 0.00 0.00 61 1004.3
20260505084738 39 312 0.0 0.0 0.00 0.00 0.00 61 1004.3
20260505084238 40 312 0.0 0.0 0.00 0.00 0.00 60 1004.0
20260505083734 40 312 0.0 0.0 0.00 0.00 0.00 60 1003.6
20260505083231 40 312 0.0 0.0 0.00 0.00 0.00 59 1003.6
20260505082727 40 312 0.0 0.0 0.00 0.00 0.00 58 1003.3
20260505082224 41 312 0.0 0.0 0.00 0.00 0.00 58 1003.6
20260505081720 41 312 0.0 0.0 0.00 0.00 0.00 57 1003.6
20260505081218 42 312 0.0 0.0 0.00 0.00 0.00 54 1003.3
20260505080715 42 312 0.0 0.0 0.00 0.00 0.00 54 1003.3
20260505080210 43 312 0.0 0.0 0.00 0.00 0.00 52 1003.3
20260505075706 43 312 0.0 0.0 0.00 0.00 0.00 52 1003.3
20260505075203 44 312 0.0 0.0 0.00 0.00 0.00 50 1002.9
20260505074701 44 312 0.0 0.0 0.00 0.00 0.00 48 1002.9
20260505074157 45 312 0.0 0.0 0.00 0.00 0.00 49 1002.9
20260505073655 45 312 0.9 0.9 0.00 0.00 0.00 48 1002.6
20260505073153 45 312 0.0 0.0 0.00 0.00 0.00 49 1002.6
20260505072648 45 312 1.7 1.7 0.00 0.00 0.00 46 1002.6
20260505072145 46 312 1.7 1.7 0.00 0.00 0.00 46 1002.9
20260505071641 46 318 1.7 1.7 0.00 0.00 0.00 46 1002.9
20260505071139 46 306 1.7 1.7 0.00 0.00 0.00 45 1002.9
20260505070636 46 306 2.6 2.6 0.00 0.00 0.00 45 1003.3
20260505070132 47 312 1.7 1.7 0.00 0.00 0.00 45 1002.9
20260505065628 46 308 2.6 2.6 0.00 0.00 0.00 45 1002.9
20260505065125 47 312 2.6 2.6 0.00 0.00 0.00 45 1002.9
20260505064621 47 323 1.7 1.7 0.00 0.00 0.00 46 1002.9
20260505064120 47 312 1.7 1.7 0.00 0.00 0.00 45 1002.9
20260505063617 47 312 2.6 3.5 0.00 0.00 0.00 44 1002.9
20260505063113 48 306 3.5 3.5 0.00 0.00 0.00 44 1002.9
20260505062609 48 294 4.3 4.3 0.00 0.00 0.00 43 1002.9
20260505062107 48 303 2.6 3.5 0.00 0.00 0.00 43 1002.9
20260505061604 48 228 1.7 1.7 0.00 0.00 0.00 42 1002.9
20260505061102 48 312 3.5 3.5 0.00 0.00 0.00 42 1002.9
20260505060559 48 312 1.7 1.7 0.00 0.00 0.00 42 1002.9
20260505060056 48 308 1.7 1.7 0.00 0.00 0.00 42 1002.9
20260505055551 49 302 1.7 1.7 0.00 0.00 0.00 42 1002.9
20260505055048 49 252 4.3 5.2 0.00 0.00 0.00 41 1002.6
20260505054545 49 289 1.7 1.7 0.00 0.00 0.00 42 1002.9
20260505054043 49 316 7.8 7.8 0.00 0.00 0.00 41 1002.6
20260505053540 49 296 1.7 1.7 0.00 0.00 0.00 41 1002.6
20260505053037 50 293 1.7 1.7 0.00 0.00 0.00 41 1002.6
20260505052534 50 318 5.2 5.2 0.00 0.00 0.00 41 1002.6
20260505052031 50 312 2.6 3.5 0.00 0.00 0.00 41 1002.3
20260505051528 50 312 1.7 1.7 0.00 0.00 0.00 41 1002.3
20260505051026 51 312 1.7 1.7 0.00 0.00 0.00 40 1002.3
20260505050524 51 300 1.7 1.7 0.00 0.00 0.00 39 1002.3
20260505041451 52 297 3.5 3.5 0.00 0.00 0.00 39 1001.3
20260505040949 53 318 1.7 1.7 0.00 0.00 0.00 38 1001.3
20260505040446 52 251 2.6 3.5 0.00 0.00 0.00 40 1000.8
20260505035943 53 278 1.7 1.7 0.00 0.00 0.00 40 1000.8
20260505035439 53 312 3.5 4.3 0.00 0.00 0.00 39 1000.8
20260505034936 53 278 3.5 3.5 0.00 0.00 0.00 39 1001.3
20260505034433 54 280 3.5 3.5 0.00 0.00 0.00 40 1000.8
20260505033930 54 258 6.1 7.0 0.00 0.00 0.00 41 1000.5
20260505033426 54 318 2.6 2.6 0.00 0.00 0.00 41 1000.5
20260505032925 54 279 2.6 2.6 0.00 0.00 0.00 40 1000.1
20260505032422 54 312 2.6 3.5 0.00 0.00 0.00 41 1000.5
20260505031918 55 216 2.6 3.5 0.00 0.00 0.00 40 1000.1
20260505031415 55 282 6.1 6.1 0.00 0.00 0.00 40 999.8
20260505030912 55 247 5.2 6.1 0.00 0.00 0.00 41 999.8
20260505030408 55 258 2.6 2.6 0.00 0.00 0.00 41 999.8
20260505025903 56 334 2.6 2.6 0.00 0.00 0.00 40 999.5
20260505025401 56 327 4.3 5.2 0.00 0.00 0.00 39 999.8
20260505024900 56 279 2.6 2.6 0.00 0.00 0.00 39 999.5
20260505024357 56 105 1.7 1.7 0.00 0.00 0.00 39 999.1
20260505023854 57 301 3.5 3.5 0.00 0.00 0.00 37 998.8
20260505023351 57 295 1.7 1.7 0.00 0.00 0.00 37 998.8
20260505022848 57 234 2.6 3.5 0.00 0.00 0.00 37 998.8
20260505022345 57 308 1.7 1.7 0.00 0.00 0.00 36 998.8
20260505021842 57 280 1.7 1.7 0.00 0.00 0.00 35 998.1
20260505021339 57 288 2.6 2.6 0.00 0.00 0.00 35 998.4
20260505020834 56 257 2.6 3.5 0.00 0.00 0.00 36 998.1
20260505020330 57 233 3.5 4.3 0.00 0.00 0.00 35 998.1
20260505015827 57 281 1.7 1.7 0.00 0.00 0.00 34 997.8
20260505015324 57 278 2.6 2.6 0.00 0.00 0.00 33 997.8
20260505014822 58 339 1.7 1.7 0.00 0.00 0.00 33 997.8
20260505014318 58 257 1.7 1.7 0.00 0.00 0.00 32 997.8
20260505013815 58 302 1.7 1.7 0.00 0.00 0.00 32 997.8
20260505013312 59 312 2.6 2.6 0.00 0.00 0.00 30 997.8
20260505012811 59 192 1.7 1.7 0.00 0.00 0.00 29 997.8
20260505012308 60 273 2.6 2.6 0.00 0.00 0.00 29 997.8
20260505011804 60 306 4.3 4.3 0.00 0.00 0.00 27 997.8
20260505011301 61 288 2.6 2.6 0.00 0.00 0.00 26 997.3
20260505010756 61 234 2.6 2.6 0.00 0.00 0.00 26 997.0
20260505010253 61 293 1.7 1.7 0.00 0.00 0.00 26 997.3
20260505005749 62 313 1.7 1.7 0.00 0.00 0.00 26 997.3
20260505005246 62 312 1.7 1.7 0.00 0.00 0.00 27 997.0
20260505004744 63 284 1.7 1.7 0.00 0.00 0.00 28 997.0
20260505004239 62 287 4.3 4.3 0.00 0.00 0.00 28 997.0
20260505003737 63 263 5.2 6.1 0.00 0.00 0.00 28 997.0
20260505003235 63 336 1.7 1.7 0.00 0.00 0.00 30 997.0
20260505002731 64 242 2.6 2.6 0.00 0.00 0.00 29 996.7
20260505002228 64 295 1.7 1.7 0.00 0.00 0.00 28 996.7
20260505001726 64 305 2.6 2.6 0.00 0.00 0.00 28 996.7
20260505001223 65 286 4.3 5.2 0.00 0.00 0.00 29 996.3
20260505000720 65 280 3.5 3.5 0.00 0.00 0.00 31 996.3
20260505000219 65 253 3.5 3.5 0.00 0.00 0.00 31 996.3
20260504235714 65 333 5.2 5.2 0.00 0.00 0.00 31 996.3
20260504235210 65 274 2.6 2.6 0.00 0.00 0.00 30 996.3
20260504234708 65 311 1.7 1.7 0.00 0.00 0.00 30 996.0
20260504234205 65 281 2.6 2.6 0.00 0.00 0.00 30 996.0
20260504233701 65 281 1.7 1.7 0.00 0.00 0.00 30 996.0
20260504233157 65 278 1.7 1.7 0.00 0.00 0.00 29 996.0
20260504232654 66 286 5.2 5.2 0.00 0.00 0.00 29 996.0
20260504232151 66 289 5.2 5.2 0.00 0.00 0.00 28 996.3
20260504231648 66 264 1.7 1.7 0.00 0.00 0.00 28 996.0
20260504231144 67 300 4.3 5.2 0.00 0.00 0.00 28 996.0
20260504230640 67 277 1.7 1.7 0.00 0.00 0.00 28 996.0
20260504230139 68 282 3.5 3.5 0.00 0.00 0.00 27 996.0
20260504225637 68 288 3.5 4.3 0.00 0.00 0.00 27 996.0
20260504225133 69 306 2.6 3.5 0.00 0.00 0.00 29 996.0
20260504224630 69 277 4.3 4.3 0.00 0.00 0.00 28 996.0
20260504224127 70 279 5.2 6.1 0.00 0.00 0.00 28 995.6
20260504223624 70 286 1.7 1.7 0.00 0.00 0.00 29 995.6
20260504223120 71 281 2.6 3.5 0.00 0.00 0.00 29 995.3
20260504222617 71 280 2.6 2.6 0.00 0.00 0.00 28 995.3
20260504222114 71 324 3.5 4.3 0.00 0.00 0.00 27 995.3
20260504221611 71 286 6.1 6.1 0.00 0.00 0.00 26 995.3
20260504221108 71 192 2.6 3.5 0.00 0.00 0.00 26 995.3
20260504220604 72 277 1.7 1.7 0.00 0.00 0.00 25 995.0
20260504215558 74 300 2.6 2.6 0.00 0.00 0.00 27 995.0
20260504215056 74 314 3.5 3.5 0.00 0.00 0.00 27 995.0
20260504214551 75 313 3.5 4.3 0.00 0.00 0.00 27 994.6
20260504214048 74 312 2.6 2.6 0.00 0.00 0.00 29 994.6
20260504213544 73 278 1.7 1.7 0.00 0.00 0.00 29 994.6
20260504213042 73 305 3.5 4.3 0.00 0.00 0.00 30 994.6
20260504212537 74 286 6.1 6.1 0.00 0.00 0.00 30 994.6
20260504212035 74 196 6.1 6.1 0.00 0.00 0.00 30 994.6
20260504211531 75 341 7.0 7.8 0.00 0.00 0.00 30 994.3
20260504211029 75 293 2.6 2.6 0.00 0.00 0.00 30 994.3
20260504210526 75 292 3.5 3.5 0.00 0.00 0.00 30 994.3
20260504210022 75 278 3.5 4.3 0.00 0.00 0.00 29 994.3
20260504205520 75 288 3.5 3.5 0.00 0.00 0.00 31 994.3
20260504205018 76 300 4.3 5.2 0.00 0.00 0.00 30 994.3
20260504204516 76 279 2.6 2.6 0.00 0.00 0.00 32 994.3
20260504204015 76 198 4.3 5.2 0.00 0.00 0.00 32 994.3
20260504203512 76 262 1.7 1.7 0.00 0.00 0.00 31 994.3
20260504203009 77 132 3.5 3.5 0.00 0.00 0.00 30 993.9
20260504202505 77 318 3.5 4.3 0.00 0.00 0.00 31 994.3
20260504202002 77 325 4.3 5.2 0.00 0.00 0.00 31 993.9
20260504201459 77 294 3.5 3.5 0.00 0.00 0.00 30 993.9
20260504200956 78 192 5.2 6.1 0.00 0.00 0.00 29 994.3
20260504200453 78 286 1.7 1.7 0.00 0.00 0.00 31 994.3
20260504195949 78 176 1.7 1.7 0.00 0.00 0.00 29 993.9
20260504195445 77 198 6.1 6.1 0.00 0.00 0.00 31 993.9
20260504194942 77 157 2.6 2.6 0.00 0.00 0.00 31 994.3
20260504194438 77 280 3.5 4.3 0.00 0.00 0.00 29 993.9
20260504193934 77 150 4.3 4.3 0.00 0.00 0.00 29 993.9
20260504193432 78 276 7.8 9.6 0.00 0.00 0.00 28 993.9
20260504192930 77 264 4.3 4.3 0.00 0.00 0.00 28 993.9
20260504192427 77 66 7.8 7.8 0.00 0.00 0.00 28 993.9
20260504191926 77 55 3.5 3.5 0.00 0.00 0.00 28 993.9
20260504191424 76 269 5.2 6.1 0.00 0.00 0.00 28 993.9
20260504190919 78 246 7.8 9.6 0.00 0.00 0.00 28 993.9
20260504190415 77 102 1.7 1.7 0.00 0.00 0.00 28 993.9
20260504185912 77 174 3.5 3.5 0.00 0.00 0.00 28 994.3
20260504185409 77 265 5.2 5.2 0.00 0.00 0.00 28 993.9
20260504184904 76 105 1.7 1.7 0.00 0.00 0.00 29 994.3
20260504184401 78 220 3.5 4.3 0.00 0.00 0.00 28 994.3
20260504183856 78 162 9.6 11.3 0.00 0.00 0.00 27 993.9
20260504183354 78 184 6.1 6.1 0.00 0.00 0.00 27 994.3
20260504182851 78 44 5.2 5.2 0.00 0.00 0.00 28 994.3
20260504182349 78 120 2.6 3.5 0.00 0.00 0.00 27 994.3
20260504181845 77 220 4.3 4.3 0.00 0.00 0.00 28 994.3
20260504181343 76 279 7.0 8.7 0.00 0.00 0.00 28 994.3
20260504180842 77 278 7.8 9.6 0.00 0.00 0.00 27 993.9
20260504180340 77 240 4.3 4.3 0.00 0.00 0.00 28 994.3
20260504175838 77 141 9.6 12.2 0.00 0.00 0.00 28 994.3
20260504175334 77 330 7.0 7.0 0.00 0.00 0.00 28 994.3
20260504174832 78 300 3.5 3.5 0.00 0.00 0.00 28 993.9
20260504174330 78 270 3.5 3.5 0.00 0.00 0.00 27 993.9
20260504173826 77 260 4.3 4.3 0.00 0.00 0.00 27 994.3